Weather reports worldwide

Advertisment
Golmes, Spain (8159): temperature & dewpoint: 08.07.2020 12:00:00 - 14.07.2020 12:00:00 (CEST)Golmes, Spain (8159): wind speed & gusts: 08.07.2020 12:00:00 - 14.07.2020 12:00:00 (CEST)Golmes, Spain (8159): wind direction: 08.07.2020 12:00:00 - 14.07.2020 12:00:00 (CEST)Golmes, Spain (8159): reduced air pressure: 08.07.2020 12:00:00 - 14.07.2020 12:00:00 (CEST)Golmes, Spain (8159): visibility: 08.07.2020 12:00:00 - 14.07.2020 12:00:00 (CEST)Golmes, Spain (8159): sunshine duration: 08.07.2020 12:00:00 - 14.07.2020 12:00:00 (CEST)Golmes, Spain (8159): precipitation: 08.07.2020 12:00:00 - 14.07.2020 12:00:00 (CEST)
Date & Time tt [°C] td [°C] ff [km/h] ff [kn] fx [km/h] fx [kn] dd ppp [hPa] vv [km] sd [min] rr [mm]
14.07.2020 12:00:00 - - - - - - - - - - -
14.07.2020 11:00:00 20,6 7,3 22 12 47 25 NW 1018,0 20 43 0,0
14.07.2020 10:00:00 19,1 7,6 24 13 45 24 NW 1018,7 20 23 0,0
14.07.2020 09:00:00 18,0 7,4 20 11 48 26 NW 1018,7 20 0 0,0
14.07.2020 08:00:00 17,1 7,4 17 9 37 20 NW 1018,9 20 0 -
14.07.2020 07:00:00 16,8 7,1 16 8 35 19 NW 1018,8 20 0 0,0
14.07.2020 06:00:00 17,2 7,3 19 10 46 25 NW 1018,5 20 0 0,0
14.07.2020 05:00:00 18,0 6,2 26 14 56 30 NW 1018,2 20 0 0,0
14.07.2020 04:00:00 18,9 5,3 26 14 53 29 NW 1018,2 20 0 0,0
14.07.2020 03:00:00 19,4 5,1 24 13 48 26 NW 1018,8 20 0 0,0
14.07.2020 02:00:00 19,9 5,1 20 11 50 27 NW 1019,4 20 0 -
14.07.2020 01:00:00 20,3 4,8 23 13 54 29 NW 1019,2 20 0 0,0
14.07.2020 00:00:00 21,2 5,9 26 14 52 28 NNW 1019,1 20 0 0,0
13.07.2020 23:00:00 22,6 5,5 25 14 49 26 NW 1018,2 20 0 0,0
13.07.2020 22:00:00 24,6 6,4 21 12 44 24 NW 1017,2 20 18 0,0
13.07.2020 21:00:00 27,7 5,9 21 12 46 25 NW 1016,4 20 60 0,0
13.07.2020 20:00:00 29,3 6,7 23 13 51 28 NW 1016,0 20 60 -
13.07.2020 19:00:00 30,1 7,8 26 14 51 28 NW 1015,6 20 60 0,0
13.07.2020 18:00:00 31,1 8,8 24 13 52 28 NW 1015,6 20 60 0,0
13.07.2020 17:00:00 31,3 8,9 24 13 44 24 NW 1015,8 20 60 0,0
13.07.2020 16:00:00 31,1 8,8 23 12 43 23 NW 1016,5 20 60 0,0
13.07.2020 15:00:00 30,4 9,3 18 10 36 20 NNW 1017,5 20 60 0,0
13.07.2020 14:00:00 28,7 11,3 14 7 34 18 NW 1018,2 20 60 -
13.07.2020 13:00:00 27,1 11,6 16 9 37 20 NW 1018,9 20 60 0,0
13.07.2020 12:00:00 25,5 11,7 19 11 43 23 NW 1019,6 20 60 0,0
13.07.2020 11:00:00 24,4 11,7 17 9 50 27 NNW 1019,7 20 60 0,0
13.07.2020 10:00:00 22,5 10,6 23 12 48 26 NW 1020,1 20 60 0,0
13.07.2020 09:00:00 21,2 12,3 19 10 40 22 NW 1020,1 20 27 0,0
13.07.2020 08:00:00 19,8 13,8 17 9 35 19 NW 1019,9 20 0 -
13.07.2020 07:00:00 19,7 14,3 17 9 46 25 NW 1019,5 20 0 0,0
13.07.2020 06:00:00 20,2 14,8 16 9 31 17 NW 1018,9 20 0 0,0
13.07.2020 05:00:00 20,9 15,0 17 9 36 19 NW 1018,7 20 0 0,0
13.07.2020 04:00:00 21,4 15,0 14 7 25 14 NW 1018,7 20 0 0,0
13.07.2020 03:00:00 21,5 13,4 6 3 27 15 WNW 1019,0 20 0 0,0
13.07.2020 02:00:00 22,1 13,2 11 6 24 13 NW 1018,8 20 0 -
13.07.2020 01:00:00 22,9 12,2 8 5 18 10 W 1018,5 20 0 0,0
13.07.2020 00:00:00 24,8 13,7 5 3 25 14 ESE 1017,4 20 0 0,0
12.07.2020 23:00:00 24,9 14,3 2 1 7 4 N 1017,2 20 0 0,0
12.07.2020 22:00:00 26,8 13,9 3 1 17 9 SSW 1016,4 20 0 0,0
12.07.2020 21:00:00 28,7 13,4 10 5 24 13 SE 1015,6 20 4 0,0
12.07.2020 20:00:00 28,9 12,7 10 6 23 12 SSE 1015,4 20 11 -
12.07.2020 19:00:00 29,1 13,8 8 4 27 15 SE 1015,3 20 23 0,0
12.07.2020 18:00:00 29,9 12,3 15 8 28 15 SSE 1015,5 20 40 0,0
12.07.2020 17:00:00 29,1 14,5 11 6 28 15 SSE 1015,7 20 15 0,0
12.07.2020 16:00:00 28,0 16,3 6 3 19 11 S 1016,4 20 43 0,0
12.07.2020 15:00:00 26,4 16,9 5 3 27 15 W 1016,7 20 28 0,0
12.07.2020 14:00:00 23,7 17,2 6 3 32 17 SW 1017,8 20 0 -
12.07.2020 13:00:00 21,9 16,4 9 5 29 15 NNW 1020,3 7 0 0,4
12.07.2020 12:00:00 23,4 15,7 14 8 28 15 NW 1020,0 20 0 0,0
12.07.2020 11:00:00 24,7 14,5 12 7 23 12 WNW 1018,8 20 58 0,0
12.07.2020 10:00:00 22,5 13,9 11 6 26 14 NW 1018,2 20 60 0,0
12.07.2020 09:00:00 21,5 13,4 13 7 27 14 WNW 1018,4 20 12 0,0
12.07.2020 08:00:00 20,8 13,3 7 4 13 7 W 1017,8 20 0 -
12.07.2020 07:00:00 20,2 12,6 4 2 14 8 W 1017,3 20 0 0,0
12.07.2020 06:00:00 20,4 12,8 7 4 17 9 W 1016,8 20 0 0,0
12.07.2020 05:00:00 20,8 13,3 7 4 21 11 WNW 1016,2 20 0 0,0
12.07.2020 04:00:00 21,5 13,4 10 6 29 16 NW 1016,3 20 0 0,0
12.07.2020 03:00:00 22,3 13,1 14 7 27 14 NW 1016,2 20 0 0,0
12.07.2020 02:00:00 23,7 13,3 10 5 29 16 NW 1016,0 17 0 -
12.07.2020 01:00:00 24,7 13,3 11 6 26 14 NNW 1016,1 20 0 0,0
12.07.2020 00:00:00 26,4 13,2 10 5 23 12 NW 1015,6 20 0 0,0
11.07.2020 23:00:00 27,7 13,3 6 3 15 8 NW 1014,9 20 0 0,0
11.07.2020 22:00:00 29,5 12,8 8 4 16 8 N 1014,2 20 13 0,0
11.07.2020 21:00:00 31,9 12,2 6 4 13 7 N 1013,7 20 60 0,0
11.07.2020 20:00:00 32,8 11,3 7 4 14 8 N 1013,5 20 60 -
11.07.2020 19:00:00 33,3 11,2 4 2 13 7 WNW 1013,7 20 60 0,0
11.07.2020 18:00:00 32,7 11,8 5 3 16 9 NW 1014,5 20 60 0,0
11.07.2020 17:00:00 32,0 12,2 5 3 22 12 NW 1015,0 20 60 0,0
11.07.2020 16:00:00 30,5 11,9 7 4 19 10 N 1015,8 20 60 0,0
11.07.2020 15:00:00 29,1 11,7 6 3 23 12 NNW 1016,8 20 60 0,0
11.07.2020 14:00:00 27,3 11,8 10 5 23 13 NW 1017,6 20 60 -
11.07.2020 13:00:00 25,7 11,8 11 6 29 16 WNW 1018,1 20 60 0,0
11.07.2020 12:00:00 23,9 11,2 14 8 37 20 NW 1018,8 20 60 0,0
11.07.2020 11:00:00 22,4 11,1 18 10 43 23 NW 1019,1 20 60 0,0
11.07.2020 10:00:00 20,8 10,9 23 12 43 23 NW 1019,2 20 60 0,0
11.07.2020 09:00:00 19,6 11,1 23 13 45 24 NW 1019,3 20 28 0,0
11.07.2020 08:00:00 18,5 11,3 20 11 40 22 NW 1018,9 20 0 -
11.07.2020 07:00:00 18,2 11,6 20 11 41 22 NW 1018,8 20 0 0,0
11.07.2020 06:00:00 18,3 12,1 22 12 42 23 NW 1018,3 20 0 0,0
11.07.2020 05:00:00 18,7 12,0 23 12 45 24 NW 1018,0 20 0 0,0
11.07.2020 04:00:00 19,2 12,0 21 11 43 23 NW 1017,9 20 0 0,0
11.07.2020 03:00:00 19,3 12,1 21 11 48 26 NW 1018,0 20 0 0,0
11.07.2020 02:00:00 19,7 12,4 22 12 45 25 NW 1018,3 20 0 -
11.07.2020 01:00:00 20,1 12,6 23 12 49 27 NW 1018,0 20 0 0,0
11.07.2020 00:00:00 21,2 12,6 20 11 51 27 NW 1017,3 20 0 0,0
10.07.2020 23:00:00 22,2 12,7 26 14 55 30 NW 1016,6 20 0 0,0
10.07.2020 22:00:00 23,5 13,1 23 12 55 30 NW 1015,3 20 13 0,0
10.07.2020 21:00:00 26,6 13,7 27 14 55 30 NW 1014,4 20 60 0,0
10.07.2020 20:00:00 29,3 13,9 26 14 52 28 NW 1013,0 20 60 -
10.07.2020 19:00:00 32,1 13,8 17 9 33 18 NNW 1012,1 18 60 0,0
10.07.2020 18:00:00 33,4 11,9 9 5 21 11 N 1011,9 20 60 0,0
10.07.2020 17:00:00 32,8 12,4 7 4 18 10 SW 1012,2 20 60 0,0
10.07.2020 16:00:00 32,2 13,9 5 3 21 12 NE 1012,8 20 60 0,0
10.07.2020 15:00:00 30,9 14,5 7 4 20 11 WNW 1013,7 20 60 0,0
10.07.2020 14:00:00 28,9 14,3 10 5 25 13 WNW 1014,5 20 60 -
10.07.2020 13:00:00 27,2 14,9 12 7 29 16 WNW 1014,8 17 60 0,0
10.07.2020 12:00:00 25,3 15,1 15 8 33 18 WNW 1015,5 20 60 0,0
10.07.2020 11:00:00 23,7 14,4 18 10 36 20 NW 1016,0 20 60 0,0
10.07.2020 10:00:00 22,2 14,8 21 11 41 22 NW 1016,3 20 60 0,0
10.07.2020 09:00:00 21,2 15,1 18 10 43 23 NW 1016,3 20 28 0,0
10.07.2020 08:00:00 20,2 15,4 14 8 34 18 WNW 1016,2 20 0 -
10.07.2020 07:00:00 20,1 16,0 11 6 26 14 NW 1015,9 20 0 0,0
10.07.2020 06:00:00 21,0 15,8 11 6 27 15 WNW 1015,6 20 0 0,0
10.07.2020 05:00:00 21,5 14,9 9 5 18 10 WNW 1015,5 20 0 0,0
10.07.2020 04:00:00 20,8 13,9 2 1 11 6 NW 1015,7 20 0 0,0
10.07.2020 03:00:00 21,2 13,9 4 2 19 11 SSE 1015,8 20 0 0,0
10.07.2020 02:00:00 21,6 14,5 5 3 10 6 SSE 1015,6 20 0 -
10.07.2020 01:00:00 22,4 14,5 5 3 17 9 NW 1015,3 20 0 0,0
10.07.2020 00:00:00 23,2 14,5 5 3 37 20 WNW 1015,3 20 0 1,2
09.07.2020 23:00:00 25,9 11,2 14 8 40 22 WSW 1016,1 20 0 0,0
09.07.2020 22:00:00 30,3 6,8 10 5 39 21 NNW 1013,2 20 0 0,0
09.07.2020 21:00:00 32,5 6,7 8 5 21 12 NW 1012,2 20 32 0,0
09.07.2020 20:00:00 34,6 9,8 5 3 10 5 N 1011,8 20 60 -
09.07.2020 19:00:00 35,7 10,0 5 3 12 7 SSE 1011,4 20 60 0,0
09.07.2020 18:00:00 35,0 10,0 3 2 16 9 N 1012,1 20 50 0,0
09.07.2020 17:00:00 32,9 12,0 5 3 22 12 SW 1013,5 20 7 0,0
09.07.2020 16:00:00 32,3 15,3 7 4 19 10 W 1014,1 20 12 0,0
09.07.2020 15:00:00 31,8 17,3 4 2 21 11 SE 1014,9 20 23 0,0
09.07.2020 14:00:00 31,3 16,5 4 2 21 11 SE 1015,0 20 16 -
09.07.2020 13:00:00 30,4 16,8 11 6 27 14 SE 1015,7 20 33 0,0
09.07.2020 12:00:00 26,9 16,8 2 1 10 5 N 1016,2 20 14 0,0
09.07.2020 11:00:00 26,5 16,7 4 2 11 6 N 1016,4 20 48 0,0
09.07.2020 10:00:00 24,5 18,2 4 2 13 7 N 1016,6 20 8 0,2
09.07.2020 09:00:00 24,4 17,1 9 5 19 11 W 1015,9 20 2 0,0
09.07.2020 08:00:00 24,0 16,6 4 2 14 7 N 1015,5 20 0 -
09.07.2020 07:00:00 23,7 17,0 8 4 22 12 SSE 1014,5 20 0 0,0
09.07.2020 06:00:00 24,0 16,0 3 2 32 17 WSW 1015,4 20 0 0,0
09.07.2020 05:00:00 24,0 16,8 4 2 12 6 WSW 1015,5 20 0 0,0
09.07.2020 04:00:00 24,7 17,2 6 3 14 7 S 1014,1 20 0 0,0
09.07.2020 03:00:00 25,6 17,5 4 2 15 8 SSE 1013,4 20 0 0,0
09.07.2020 02:00:00 26,5 16,7 9 5 19 10 SSE 1014,3 20 0 -
09.07.2020 01:00:00 27,7 12,1 7 4 25 13 SE 1014,0 20 0 0,0
09.07.2020 00:00:00 27,9 11,9 8 4 24 13 SE 1012,9 20 0 0,0
08.07.2020 23:00:00 29,1 11,2 12 6 32 17 SE 1012,9 20 0 0,0
08.07.2020 22:00:00 30,2 10,2 11 6 29 16 SE 1012,6 20 0 0,0
08.07.2020 21:00:00 30,7 7,8 7 4 22 12 SE 1012,6 20 0 0,0
08.07.2020 20:00:00 30,4 9,8 10 5 59 32 SSE 1012,9 20 0 -
08.07.2020 19:00:00 32,2 9,0 9 5 22 12 SSW 1013,2 20 0 0,0
08.07.2020 18:00:00 33,9 9,8 9 5 34 18 SSE 1011,8 20 39 0,0
08.07.2020 17:00:00 35,0 10,8 12 6 32 18 SSE 1012,2 20 54 0,0
08.07.2020 16:00:00 34,7 9,2 12 7 24 13 SSE 1012,9 20 60 0,0
08.07.2020 15:00:00 32,7 8,3 12 7 24 13 SE 1013,6 20 60 0,0
08.07.2020 14:00:00 29,8 9,8 11 6 29 15 SSE 1014,2 20 22 -
08.07.2020 13:00:00 28,6 8,3 7 4 19 11 ESE 1014,7 20 54 0,0
08.07.2020 12:00:00 25,7 9,9 6 3 27 15 N 1017,4 20 24 0,0

tt = temperature
td = dewpoint
ff = wind speed
fx = gusts
dd = wind direction
ppp = reduced air pressure
vv = visibility
sd = sunshine duration
rr = precipitation

Next stations